Weather History for Presque Isle, ME

Change the Weather History Date:

Monday, February 18, 2013

  Actual Average Record
Temperature  
Mean Temperature 20 °F -  
Max Temperature 26 °F 24 °F 48 °F (1981)
Min Temperature 14 °F 0 °F -34 °F (1967)
Degree Days  
Heating Degree Days 45    
Moisture  
Dew Point 7 °F    
Average Humidity 57    
Maximum Humidity 68    
Minimum Humidity 46    
Precipitation  
Precipitation 0.00 in - - ()
Sea Level Pressure  
Sea Level Pressure 29.35 in    
Wind  
Wind Speed 22 mph (WNW)    
Max Wind Speed 31 mph    
Max Gust Speed 44 mph    
Visibility 9 miles    
Events      
Averages and records for this station are not official NWS values.
T = Trace of Precipitation, MM = Missing Value Source: NWS Daily Summary

Daily Weather History Graph

Daily Weather History Graph

Search for Another Location

Airport:

Trip Planner

Search our weather history database for the weather conditions in past years. The results will help you decide how hot, cold, wet, or windy it might be!

Date:

Astronomy

Feb. 18, 2013 Rise Set
Actual Time 6:30 AM EST 5:02 PM EST
Civil Twilight 5:59 AM EST 5:33 PM EST
Nautical Twilight 5:24 AM EST 6:08 PM EST
Astronomical Twilight 4:49 AM EST 6:43 PM EST
Moon 10:34 AM EST (2/18) 1:17 AM EST (2/18)
Length of Visible Light 11h 33m
Length of Day
10h 31m
First Quarter, 58% of the Moon is Illuminated
Feb 18
First Quarter
Feb 25
Full
Mar 4
Last Quarter
Mar 11
New
Mar 19
First Quarter

Hourly Weather History & Observations

Time (EST) Temp. Windchill Dew Point Humidity Pressure Visibility Wind Dir Wind Speed Gust Speed Precip Events Conditions
12:35 AM - - - N/A% 29.00 in - WNW 21.9 mph 32.2 mph N/A   Unknown
12:55 AM 19.4 °F 2.5 °F 8.6 °F 63% 29.01 in 5.0 mi WNW 23.0 mph 32.2 mph N/A   Overcast
1:15 AM 17.6 °F 0.5 °F 8.6 °F 68% 29.02 in 7.0 mi WNW 21.9 mph 36.8 mph N/A   Overcast
1:35 AM 17.6 °F 1.7 °F 8.6 °F 68% 29.02 in 8.0 mi WNW 18.4 mph 33.4 mph N/A   Overcast
1:55 AM 17.6 °F -1.3 °F 8.6 °F 68% 29.03 in 7.0 mi WNW 27.6 mph 36.8 mph N/A   Overcast
2:15 AM 17.6 °F -0.6 °F 8.6 °F 68% 29.04 in 7.0 mi WNW 25.3 mph 35.7 mph N/A   Overcast
2:35 AM 15.8 °F -3.4 °F 6.8 °F 68% 29.04 in 4.0 mi WNW 26.5 mph 36.8 mph N/A   Mostly Cloudy
2:55 AM 15.8 °F -3.1 °F 6.8 °F 68% 29.05 in 3.0 mi WNW 25.3 mph 43.7 mph N/A   Mostly Cloudy
3:15 AM 15.8 °F -3.4 °F 5.0 °F 62% 29.07 in 5.0 mi WNW 26.5 mph 40.3 mph N/A   Mostly Cloudy
3:35 AM 17.6 °F -1.0 °F 6.8 °F 63% 29.08 in 4.0 mi WNW 26.5 mph 39.1 mph N/A   Partly Cloudy
3:55 AM 17.6 °F -0.6 °F 6.8 °F 63% 29.09 in 9.0 mi WNW 25.3 mph 35.7 mph N/A   Scattered Clouds
4:15 AM 17.6 °F -1.3 °F 8.6 °F 68% 29.11 in 5.0 mi WNW 27.6 mph 41.4 mph N/A   Overcast
4:35 AM 17.6 °F -1.0 °F 6.8 °F 63% 29.12 in 4.0 mi WNW 26.5 mph 40.3 mph N/A   Overcast
4:55 AM 17.6 °F -1.3 °F 6.8 °F 63% 29.14 in 6.0 mi WNW 27.6 mph 40.3 mph N/A   Overcast
5:15 AM 17.6 °F 0.1 °F 6.8 °F 63% 29.16 in 10.0 mi WNW 23.0 mph 34.5 mph N/A   Overcast
5:35 AM 15.8 °F -1.1 °F 6.8 °F 68% 29.18 in 10.0 mi West 19.6 mph 25.3 mph N/A   Overcast
5:55 AM 14.0 °F -4.7 °F 5.0 °F 67% 29.20 in 10.0 mi West 23.0 mph 31.1 mph N/A   Overcast
6:15 AM 14.0 °F -5.1 °F 3.2 °F 62% 29.21 in 9.0 mi West 24.2 mph 33.4 mph N/A   Overcast
6:35 AM 14.0 °F -3.4 °F 3.2 °F 62% 29.21 in 10.0 mi West 19.6 mph 33.4 mph N/A   Overcast
6:55 AM 14.0 °F -3.9 °F 3.2 °F 62% 29.23 in 9.0 mi WNW 20.7 mph 34.5 mph N/A   Overcast
7:15 AM 15.8 °F -2.3 °F 3.2 °F 58% 29.23 in 4.0 mi WNW 23.0 mph 36.8 mph N/A   Overcast
7:35 AM 15.8 °F -1.1 °F 3.2 °F 58% 29.25 in 9.0 mi West 19.6 mph 33.4 mph N/A   Overcast
7:55 AM 15.8 °F -1.9 °F 3.2 °F 58% 29.26 in 10.0 mi West 21.9 mph 31.1 mph N/A   Overcast
8:15 AM 15.8 °F -2.3 °F 3.2 °F 58% 29.27 in 10.0 mi WNW 23.0 mph 36.8 mph N/A   Overcast
8:35 AM 15.8 °F -1.5 °F 3.2 °F 58% 29.27 in 10.0 mi WNW 20.7 mph 31.1 mph N/A   Overcast
8:55 AM 15.8 °F -2.3 °F 3.2 °F 58% 29.28 in 10.0 mi WNW 23.0 mph 29.9 mph N/A   Overcast
9:15 AM 15.8 °F -1.5 °F 5.0 °F 62% 29.29 in 10.0 mi WNW 20.7 mph 29.9 mph N/A   Overcast
9:35 AM 17.6 °F 0.5 °F 6.8 °F 63% 29.29 in 10.0 mi WNW 21.9 mph 33.4 mph N/A   Overcast
9:55 AM 17.6 °F 1.7 °F 5.0 °F 58% 29.29 in 10.0 mi WNW 18.4 mph 32.2 mph N/A   Overcast
10:15 AM 19.4 °F 4.1 °F 6.8 °F 58% 29.30 in 10.0 mi WNW 18.4 mph 26.5 mph N/A   Overcast
10:35 AM 19.4 °F 2.1 °F 5.0 °F 54% 29.30 in 10.0 mi WNW 24.2 mph 29.9 mph N/A   Overcast
10:55 AM 19.4 °F 2.1 °F 6.8 °F 58% 29.31 in 9.0 mi West 24.2 mph 34.5 mph N/A   Overcast
11:35 AM 21.2 °F 5.6 °F 6.8 °F 54% 29.32 in 10.0 mi West 20.7 mph 29.9 mph N/A   Overcast
11:55 AM 21.2 °F 4.2 °F 6.8 °F 54% 29.33 in 9.0 mi West 25.3 mph 38.0 mph N/A   Overcast
12:15 PM 21.2 °F 4.2 °F 8.6 °F 58% 29.34 in 9.0 mi WNW 25.3 mph 34.5 mph N/A   Overcast
12:35 PM 21.2 °F 5.2 °F 8.6 °F 58% 29.35 in 10.0 mi West 21.9 mph 31.1 mph N/A   Overcast
12:55 PM 23.0 °F 6.9 °F 10.4 °F 59% 29.35 in 7.0 mi WNW 24.2 mph 38.0 mph N/A   Overcast
1:15 PM 23.0 °F 8.0 °F 8.6 °F 54% 29.36 in 10.0 mi WNW 20.7 mph 38.0 mph N/A   Overcast
1:35 PM 24.8 °F 10.3 °F 8.6 °F 50% 29.37 in 10.0 mi WNW 20.7 mph 31.1 mph N/A   Overcast
1:55 PM 24.8 °F 9.6 °F 10.4 °F 54% 29.37 in 10.0 mi WNW 23.0 mph 31.1 mph N/A   Overcast
2:15 PM 26.6 °F 13.8 °F 10.4 °F 51% 29.39 in 10.0 mi WNW 17.3 mph 29.9 mph N/A   Overcast
2:35 PM 26.6 °F 11.4 °F 10.4 °F 51% 29.39 in 10.0 mi West 25.3 mph 32.2 mph N/A   Overcast
2:55 PM 26.6 °F 14.3 °F 8.6 °F 47% 29.40 in 10.0 mi WNW 16.1 mph 34.5 mph N/A   Overcast
3:15 PM 26.6 °F 13.4 °F 10.4 °F 51% 29.41 in 10.0 mi WNW 18.4 mph 33.4 mph N/A   Mostly Cloudy
3:35 PM 26.6 °F 10.8 °F 10.4 °F 51% 29.42 in 10.0 mi WNW 27.6 mph 36.8 mph N/A   Scattered Clouds
3:55 PM 26.6 °F 10.0 °F 8.6 °F 47% 29.43 in 9.0 mi WNW 31.1 mph 38.0 mph N/A   Clear
4:15 PM 24.8 °F 9.6 °F 10.4 °F 54% 29.45 in 10.0 mi WNW 23.0 mph 36.8 mph N/A   Partly Cloudy
4:35 PM 24.8 °F 10.0 °F 8.6 °F 50% 29.47 in 10.0 mi WNW 21.9 mph 34.5 mph N/A   Clear
4:55 PM 24.8 °F 11.5 °F 8.6 °F 50% 29.48 in 10.0 mi West 17.3 mph 21.9 mph N/A   Mostly Cloudy
5:15 PM 24.8 °F 11.5 °F 8.6 °F 50% 29.50 in 10.0 mi West 17.3 mph 25.3 mph N/A   Mostly Cloudy
5:35 PM 24.8 °F 10.7 °F 8.6 °F 50% 29.50 in 10.0 mi West 19.6 mph 24.2 mph N/A   Mostly Cloudy
5:55 PM 24.8 °F 10.7 °F 6.8 °F 46% 29.52 in 10.0 mi West 19.6 mph 24.2 mph N/A   Scattered Clouds
6:15 PM 23.0 °F 7.2 °F 6.8 °F 50% 29.53 in 10.0 mi West 23.0 mph 27.6 mph N/A   Clear
6:35 PM 23.0 °F 8.7 °F 6.8 °F 50% 29.54 in 10.0 mi West 18.4 mph 25.3 mph N/A   Clear
6:55 PM 23.0 °F 8.3 °F 6.8 °F 50% 29.54 in 10.0 mi West 19.6 mph 28.8 mph N/A   Clear
7:15 PM 21.2 °F 6.4 °F 6.8 °F 54% 29.55 in 10.0 mi West 18.4 mph 26.5 mph N/A   Clear
7:35 PM 21.2 °F 7.3 °F 6.8 °F 54% 29.57 in 10.0 mi West 16.1 mph 27.6 mph N/A   Clear
7:55 PM 21.2 °F 6.4 °F 6.8 °F 54% 29.57 in 10.0 mi West 18.4 mph 28.8 mph N/A   Clear
8:15 PM 21.2 °F 6.8 °F 6.8 °F 54% 29.58 in 10.0 mi WNW 17.3 mph 27.6 mph N/A   Clear
8:35 PM 21.2 °F 6.8 °F 6.8 °F 54% 29.59 in 10.0 mi West 17.3 mph 27.6 mph N/A   Clear
8:55 PM 21.2 °F 6.8 °F 6.8 °F 54% 29.60 in 10.0 mi West 17.3 mph 26.5 mph N/A   Clear
9:15 PM 21.2 °F 6.8 °F 6.8 °F 54% 29.61 in 10.0 mi West 17.3 mph 28.8 mph N/A   Clear
9:35 PM 21.2 °F 8.9 °F 6.8 °F 54% 29.61 in 10.0 mi WNW 12.7 mph 20.7 mph N/A   Clear
9:55 PM 21.2 °F 6.8 °F 6.8 °F 54% 29.62 in 10.0 mi West 17.3 mph 27.6 mph N/A   Clear
10:15 PM 19.4 °F 4.5 °F 5.0 °F 54% 29.63 in 10.0 mi West 17.3 mph 28.8 mph N/A   Clear
10:35 PM 19.4 °F 3.6 °F 6.8 °F 58% 29.64 in 10.0 mi West 19.6 mph 27.6 mph N/A   Clear
10:55 PM 19.4 °F 4.1 °F 5.0 °F 54% 29.66 in 10.0 mi West 18.4 mph 31.1 mph N/A   Clear
11:15 PM 19.4 °F 3.2 °F 5.0 °F 54% 29.67 in 10.0 mi West 20.7 mph 28.8 mph N/A   Clear
11:35 PM 19.4 °F 2.8 °F 5.0 °F 54% 29.69 in 10.0 mi West 21.9 mph 33.4 mph N/A   Clear
11:55 PM 19.4 °F 2.5 °F 3.2 °F 49% 29.71 in 10.0 mi West 23.0 mph 31.1 mph N/A   Clear